﻿測定場所 (Monitoring sites),日付 (Measurement date),時間 (Measurement time),線量率 最大値 (max) μGy/h,線量率 最小値 (min) μGy/h,線量率 平均値 (average) μGy/h,
足立 (Adachi),2017-10-08,23:01～24:00,0.0331,0.0294,0.0312,
足立 (Adachi),2017-10-08,22:01～23:00,0.0328,0.0295,0.0312,
足立 (Adachi),2017-10-08,21:01～22:00,0.0333,0.0292,0.0312,
足立 (Adachi),2017-10-08,20:01～21:00,0.0335,0.0291,0.0312,
足立 (Adachi),2017-10-08,19:01～20:00,0.0331,0.0291,0.0311,
足立 (Adachi),2017-10-08,18:01～19:00,0.0326,0.0289,0.0309,
足立 (Adachi),2017-10-08,17:01～18:00,0.0333,0.0291,0.0312,
足立 (Adachi),2017-10-08,16:01～17:00,0.0338,0.0292,0.0314,
足立 (Adachi),2017-10-08,15:01～16:00,0.0337,0.0292,0.0314,
足立 (Adachi),2017-10-08,14:01～15:00,0.0328,0.0297,0.0312,
足立 (Adachi),2017-10-08,13:01～14:00,0.0333,0.0293,0.0315,
足立 (Adachi),2017-10-08,12:01～13:00,0.0336,0.0290,0.0312,
足立 (Adachi),2017-10-08,11:01～12:00,0.0334,0.0299,0.0315,
足立 (Adachi),2017-10-08,10:01～11:00,0.0336,0.0294,0.0317,
足立 (Adachi),2017-10-08,09:01～10:00,0.0333,0.0296,0.0315,
足立 (Adachi),2017-10-08,08:01～09:00,0.0336,0.0302,0.0320,
足立 (Adachi),2017-10-08,07:01～08:00,0.0344,0.0298,0.0319,
足立 (Adachi),2017-10-08,06:01～07:00,0.0335,0.0294,0.0319,
足立 (Adachi),2017-10-08,05:01～06:00,0.0335,0.0297,0.0313,
足立 (Adachi),2017-10-08,04:01～05:00,0.0327,0.0294,0.0309,
足立 (Adachi),2017-10-08,03:01～04:00,0.0335,0.0292,0.0311,
足立 (Adachi),2017-10-08,02:01～03:00,0.0335,0.0283,0.0312,
足立 (Adachi),2017-10-08,01:01～02:00,0.0327,0.0296,0.0311,
足立 (Adachi),2017-10-08,00:01～01:00,0.0331,0.0290,0.0310,
足立 (Adachi),2017-10-07,23:01～24:00,0.0328,0.0291,0.0310,
足立 (Adachi),2017-10-07,22:01～23:00,0.0336,0.0296,0.0311,
足立 (Adachi),2017-10-07,21:01～22:00,0.0334,0.0286,0.0310,
足立 (Adachi),2017-10-07,20:01～21:00,0.0329,0.0287,0.0307,
足立 (Adachi),2017-10-07,19:01～20:00,0.0323,0.0290,0.0308,
足立 (Adachi),2017-10-07,18:01～19:00,0.0329,0.0289,0.0306,
足立 (Adachi),2017-10-07,17:01～18:00,0.0326,0.0289,0.0306,
足立 (Adachi),2017-10-07,16:01～17:00,0.0323,0.0289,0.0307,
足立 (Adachi),2017-10-07,15:01～16:00,0.0327,0.0282,0.0307,
足立 (Adachi),2017-10-07,14:01～15:00,0.0326,0.0291,0.0310,
足立 (Adachi),2017-10-07,13:01～14:00,0.0331,0.0297,0.0314,
足立 (Adachi),2017-10-07,12:01～13:00,0.0342,0.0291,0.0318,
足立 (Adachi),2017-10-07,11:01～12:00,0.0333,0.0294,0.0312,
足立 (Adachi),2017-10-07,10:01～11:00,0.0341,0.0297,0.0316,
足立 (Adachi),2017-10-07,09:01～10:00,0.0342,0.0299,0.0325,
足立 (Adachi),2017-10-07,08:01～09:00,0.0359,0.0319,0.0336,
足立 (Adachi),2017-10-07,07:01～08:00,0.0369,0.0327,0.0347,
足立 (Adachi),2017-10-07,06:01～07:00,0.0391,0.0322,0.0352,
足立 (Adachi),2017-10-07,05:01～06:00,0.0491,0.0376,0.0435,
足立 (Adachi),2017-10-07,04:01～05:00,0.0503,0.0420,0.0469,
足立 (Adachi),2017-10-07,03:01～04:00,0.0485,0.0423,0.0455,
足立 (Adachi),2017-10-07,02:01～03:00,0.0481,0.0419,0.0452,
足立 (Adachi),2017-10-07,01:01～02:00,0.0479,0.0404,0.0441,
足立 (Adachi),2017-10-07,00:01～01:00,0.0463,0.0390,0.0432,
足立 (Adachi),2017-10-06,23:01～24:00,0.0444,0.0342,0.0380,
足立 (Adachi),2017-10-06,22:01～23:00,0.0392,0.0333,0.0363,
足立 (Adachi),2017-10-06,21:01～22:00,0.0447,0.0347,0.0387,
足立 (Adachi),2017-10-06,20:01～21:00,0.0449,0.0382,0.0411,
足立 (Adachi),2017-10-06,19:01～20:00,0.0463,0.0388,0.0426,
足立 (Adachi),2017-10-06,18:01～19:00,0.0461,0.0388,0.0426,
足立 (Adachi),2017-10-06,17:01～18:00,0.0436,0.0358,0.0386,
足立 (Adachi),2017-10-06,16:01～17:00,0.0374,0.0315,0.0351,
足立 (Adachi),2017-10-06,15:01～16:00,0.0339,0.0301,0.0322,
足立 (Adachi),2017-10-06,14:01～15:00,0.0333,0.0300,0.0319,
足立 (Adachi),2017-10-06,13:01～14:00,0.0344,0.0300,0.0322,
足立 (Adachi),2017-10-06,12:01～13:00,0.0341,0.0293,0.0318,
足立 (Adachi),2017-10-06,11:01～12:00,0.0338,0.0299,0.0322,
足立 (Adachi),2017-10-06,10:01～11:00,0.0337,0.0299,0.0319,
足立 (Adachi),2017-10-06,09:01～10:00,0.0354,0.0310,0.0325,
足立 (Adachi),2017-10-06,08:01～09:00,0.0344,0.0295,0.0324,
足立 (Adachi),2017-10-06,07:01～08:00,0.0352,0.0304,0.0326,
足立 (Adachi),2017-10-06,06:01～07:00,0.0351,0.0306,0.0328,
足立 (Adachi),2017-10-06,05:01～06:00,0.0353,0.0307,0.0326,
足立 (Adachi),2017-10-06,04:01～05:00,0.0337,0.0305,0.0319,
足立 (Adachi),2017-10-06,03:01～04:00,0.0335,0.0297,0.0319,
足立 (Adachi),2017-10-06,02:01～03:00,0.0356,0.0298,0.0317,
足立 (Adachi),2017-10-06,01:01～02:00,0.0331,0.0302,0.0317,
足立 (Adachi),2017-10-06,00:01～01:00,0.0337,0.0299,0.0316,
足立 (Adachi),2017-10-05,23:01～24:00,0.0334,0.0297,0.0317,
足立 (Adachi),2017-10-05,22:01～23:00,0.0343,0.0301,0.0318,
足立 (Adachi),2017-10-05,21:01～22:00,0.0339,0.0296,0.0315,
足立 (Adachi),2017-10-05,20:01～21:00,0.0334,0.0297,0.0317,
足立 (Adachi),2017-10-05,19:01～20:00,0.0328,0.0297,0.0315,
足立 (Adachi),2017-10-05,18:01～19:00,0.0329,0.0297,0.0315,
足立 (Adachi),2017-10-05,17:01～18:00,0.0334,0.0294,0.0314,
足立 (Adachi),2017-10-05,16:01～17:00,0.0329,0.0288,0.0312,
足立 (Adachi),2017-10-05,15:01～16:00,0.0337,0.0291,0.0312,
足立 (Adachi),2017-10-05,14:01～15:00,0.0338,0.0297,0.0313,
足立 (Adachi),2017-10-05,13:01～14:00,0.0332,0.0300,0.0317,
足立 (Adachi),2017-10-05,12:01～13:00,0.0333,0.0296,0.0317,
足立 (Adachi),2017-10-05,11:01～12:00,0.0339,0.0299,0.0318,
足立 (Adachi),2017-10-05,10:01～11:00,0.0346,0.0298,0.0320,
足立 (Adachi),2017-10-05,09:01～10:00,0.0338,0.0306,0.0320,
足立 (Adachi),2017-10-05,08:01～09:00,0.0342,0.0300,0.0318,
足立 (Adachi),2017-10-05,07:01～08:00,0.0335,0.0299,0.0318,
足立 (Adachi),2017-10-05,06:01～07:00,0.0351,0.0299,0.0318,
足立 (Adachi),2017-10-05,05:01～06:00,0.0341,0.0307,0.0324,
足立 (Adachi),2017-10-05,04:01～05:00,0.0344,0.0303,0.0321,
足立 (Adachi),2017-10-05,03:01～04:00,0.0346,0.0301,0.0321,
足立 (Adachi),2017-10-05,02:01～03:00,0.0338,0.0298,0.0320,
足立 (Adachi),2017-10-05,01:01～02:00,0.0332,0.0302,0.0321,
足立 (Adachi),2017-10-05,00:01～01:00,0.0347,0.0299,0.0321,
足立 (Adachi),2017-10-04,23:01～24:00,0.0340,0.0296,0.0320,
足立 (Adachi),2017-10-04,22:01～23:00,0.0341,0.0304,0.0321,
足立 (Adachi),2017-10-04,21:01～22:00,0.0340,0.0297,0.0318,
足立 (Adachi),2017-10-04,20:01～21:00,0.0339,0.0303,0.0319,
足立 (Adachi),2017-10-04,19:01～20:00,0.0335,0.0290,0.0317,
足立 (Adachi),2017-10-04,18:01～19:00,0.0338,0.0295,0.0317,
足立 (Adachi),2017-10-04,17:01～18:00,0.0333,0.0295,0.0314,
足立 (Adachi),2017-10-04,16:01～17:00,0.0335,0.0298,0.0317,
足立 (Adachi),2017-10-04,15:01～16:00,0.0348,0.0298,0.0315,
足立 (Adachi),2017-10-04,14:01～15:00,0.0333,0.0297,0.0315,
足立 (Adachi),2017-10-04,13:01～14:00,0.0331,0.0300,0.0317,
足立 (Adachi),2017-10-04,12:01～13:00,0.0338,0.0297,0.0314,
足立 (Adachi),2017-10-04,11:01～12:00,0.0352,0.0295,0.0319,
足立 (Adachi),2017-10-04,10:01～11:00,0.0336,0.0294,0.0317,
足立 (Adachi),2017-10-04,09:01～10:00,0.0337,0.0291,0.0317,
足立 (Adachi),2017-10-04,08:01～09:00,0.0356,0.0317,0.0333,
足立 (Adachi),2017-10-04,07:01～08:00,0.0408,0.0333,0.0367,
足立 (Adachi),2017-10-04,06:01～07:00,0.0395,0.0305,0.0332,
足立 (Adachi),2017-10-04,05:01～06:00,0.0345,0.0300,0.0318,
足立 (Adachi),2017-10-04,04:01～05:00,0.0344,0.0303,0.0321,
足立 (Adachi),2017-10-04,03:01～04:00,0.0336,0.0306,0.0320,
足立 (Adachi),2017-10-04,02:01～03:00,0.0341,0.0298,0.0321,
足立 (Adachi),2017-10-04,01:01～02:00,0.0341,0.0304,0.0320,
足立 (Adachi),2017-10-04,00:01～01:00,0.0341,0.0300,0.0319,
足立 (Adachi),2017-10-03,23:01～24:00,0.0342,0.0305,0.0319,
足立 (Adachi),2017-10-03,22:01～23:00,0.0340,0.0298,0.0319,
足立 (Adachi),2017-10-03,21:01～22:00,0.0339,0.0295,0.0315,
足立 (Adachi),2017-10-03,20:01～21:00,0.0344,0.0294,0.0317,
足立 (Adachi),2017-10-03,19:01～20:00,0.0341,0.0301,0.0317,
足立 (Adachi),2017-10-03,18:01～19:00,0.0339,0.0300,0.0318,
足立 (Adachi),2017-10-03,17:01～18:00,0.0335,0.0289,0.0317,
足立 (Adachi),2017-10-03,16:01～17:00,0.0342,0.0295,0.0317,
足立 (Adachi),2017-10-03,15:01～16:00,0.0340,0.0287,0.0314,
足立 (Adachi),2017-10-03,14:01～15:00,0.0339,0.0299,0.0318,
足立 (Adachi),2017-10-03,13:01～14:00,0.0338,0.0295,0.0315,
足立 (Adachi),2017-10-03,12:01～13:00,0.0330,0.0297,0.0313,
足立 (Adachi),2017-10-03,11:01～12:00,0.0335,0.0291,0.0315,
足立 (Adachi),2017-10-03,10:01～11:00,0.0340,0.0296,0.0315,
足立 (Adachi),2017-10-03,09:01～10:00,0.0335,0.0295,0.0316,
足立 (Adachi),2017-10-03,08:01～09:00,0.0342,0.0304,0.0321,
足立 (Adachi),2017-10-03,07:01～08:00,0.0332,0.0298,0.0314,
足立 (Adachi),2017-10-03,06:01～07:00,0.0335,0.0296,0.0315,
足立 (Adachi),2017-10-03,05:01～06:00,0.0326,0.0292,0.0310,
足立 (Adachi),2017-10-03,04:01～05:00,0.0332,0.0292,0.0313,
足立 (Adachi),2017-10-03,03:01～04:00,0.0338,0.0293,0.0313,
足立 (Adachi),2017-10-03,02:01～03:00,0.0330,0.0299,0.0316,
足立 (Adachi),2017-10-03,01:01～02:00,0.0353,0.0307,0.0327,
足立 (Adachi),2017-10-03,00:01～01:00,0.0405,0.0326,0.0366,
足立 (Adachi),2017-10-02,23:01～24:00,0.0439,0.0352,0.0390,
足立 (Adachi),2017-10-02,22:01～23:00,0.0378,0.0330,0.0357,
足立 (Adachi),2017-10-02,21:01～22:00,0.0409,0.0330,0.0364,
足立 (Adachi),2017-10-02,20:01～21:00,0.0337,0.0290,0.0315,
足立 (Adachi),2017-10-02,19:01～20:00,0.0323,0.0287,0.0305,
足立 (Adachi),2017-10-02,18:01～19:00,0.0326,0.0284,0.0303,
足立 (Adachi),2017-10-02,17:01～18:00,0.0330,0.0283,0.0307,
足立 (Adachi),2017-10-02,16:01～17:00,0.0341,0.0286,0.0306,
足立 (Adachi),2017-10-02,15:01～16:00,0.0332,0.0294,0.0315,
足立 (Adachi),2017-10-02,14:01～15:00,0.0329,0.0290,0.0312,
足立 (Adachi),2017-10-02,13:01～14:00,0.0330,0.0293,0.0310,
足立 (Adachi),2017-10-02,12:01～13:00,0.0329,0.0292,0.0310,
足立 (Adachi),2017-10-02,11:01～12:00,0.0335,0.0293,0.0314,
足立 (Adachi),2017-10-02,10:01～11:00,0.0341,0.0301,0.0323,
足立 (Adachi),2017-10-02,09:01～10:00,0.0340,0.0305,0.0319,
足立 (Adachi),2017-10-02,08:01～09:00,0.0346,0.0296,0.0321,
足立 (Adachi),2017-10-02,07:01～08:00,0.0344,0.0300,0.0321,
足立 (Adachi),2017-10-02,06:01～07:00,0.0350,0.0304,0.0322,
足立 (Adachi),2017-10-02,05:01～06:00,0.0334,0.0296,0.0316,
足立 (Adachi),2017-10-02,04:01～05:00,0.0331,0.0294,0.0316,
足立 (Adachi),2017-10-02,03:01～04:00,0.0342,0.0298,0.0316,
足立 (Adachi),2017-10-02,02:01～03:00,0.0345,0.0299,0.0318,
足立 (Adachi),2017-10-02,01:01～02:00,0.0343,0.0298,0.0317,
足立 (Adachi),2017-10-02,00:01～01:00,0.0339,0.0301,0.0318,
